Mineral Point, WI

4:44 AM CST on December 10, 2019 (GMT -0600)
Iowa County

Weather History for KMRJ - November, 2019

Change the Weather History Date:

Friday, November 15, 2019

  Actual Average (KLNR) Record (KLNR)
Temperature  
Mean Temperature 30 °F -  
Max Temperature 39 °F 43 °F 69 °F (2001)
Min Temperature 21 °F 27 °F 10 °F (2014)
Degree Days  
Heating Degree Days 35    
Moisture  
Dew Point 25 °F    
Average Humidity 84    
Maximum Humidity 93    
Minimum Humidity 70    
Precipitation  
Precipitation 0.00 in - - ()
Sea Level Pressure  
Sea Level Pressure 30.32 in    
Wind  
Wind Speed 4 mph (WSW)    
Max Wind Speed 7 mph    
Max Gust Speed -    
Visibility 10 miles    
Events      
Averages and records for this station are not official NWS values.
T = Trace of Precipitation, MM = Missing Value Source: NWS Daily Summary

Daily Weather History Graph

Daily Weather History Graph

Search for Another Location

Airport or City:

Astronomy

Nov. 15, 2019 Rise Set
Actual Time 6:52 AM CST 4:37 PM CST
Civil Twilight 6:22 AM CST 5:08 PM CST
Nautical Twilight 5:48 AM CST 5:42 PM CST
Astronomical Twilight 5:14 AM CST 6:15 PM CST
Moon 7:10 PM CST (11/15) 9:52 AM CST (11/15)
Length of Visible Light 10h 45m
Length of Day
9h 44m
Waning Gibbous, 90% of the Moon is Illuminated
Nov 15
Waning Gibbous
Nov 19
Last Quarter
Nov 26
New
Dec 4
First Quarter
Dec 11
Full

Hourly Weather History & Observations

Time (CST) Temp. Windchill Dew Point Humidity Pressure Visibility Wind Dir Wind Speed Gust Speed Precip Events Conditions
12:15 AM 23.0 °F 14.7 °F 19.4 °F 86% 30.25 in 10.0 mi West 6.9 mph - N/A   Clear
12:35 AM 23.0 °F 14.7 °F 19.4 °F 86% 30.25 in 10.0 mi WSW 6.9 mph - N/A   Clear
12:55 AM 23.0 °F 15.8 °F 19.4 °F 86% 30.25 in 10.0 mi WSW 5.8 mph - N/A   Clear
1:15 AM 21.2 °F 16.4 °F 19.4 °F 93% 30.25 in 10.0 mi West 3.5 mph - N/A   Clear
1:35 AM 21.2 °F 14.9 °F 19.4 °F 93% 30.25 in 10.0 mi WSW 4.6 mph - N/A   Clear
1:55 AM 21.2 °F 14.9 °F 19.4 °F 93% 30.25 in 10.0 mi West 4.6 mph - N/A   Clear
2:15 AM 21.2 °F 14.9 °F 19.4 °F 93% 30.25 in 10.0 mi West 4.6 mph - N/A   Clear
2:35 AM 21.2 °F - 19.4 °F 93% 30.25 in 10.0 mi Calm Calm - N/A   Clear
3:15 AM 21.2 °F - 19.4 °F 93% 30.26 in 10.0 mi Calm Calm - N/A   Clear
3:35 AM 21.2 °F 13.6 °F 19.4 °F 93% 30.25 in 10.0 mi West 5.8 mph - N/A   Clear
3:55 AM 21.2 °F 14.9 °F 19.4 °F 93% 30.26 in 10.0 mi West 4.6 mph - N/A   Clear
4:15 AM 21.2 °F 14.9 °F 19.4 °F 93% 30.26 in 10.0 mi West 4.6 mph - N/A   Clear
4:35 AM 21.2 °F 14.9 °F 19.4 °F 93% 30.27 in 10.0 mi West 4.6 mph - N/A   Clear
4:55 AM 21.2 °F 14.9 °F 19.4 °F 93% 30.27 in 10.0 mi West 4.6 mph - N/A   Clear
5:15 AM 21.2 °F 14.9 °F 19.4 °F 93% 30.27 in 10.0 mi West 4.6 mph - N/A   Clear
5:35 AM 21.2 °F 14.9 °F 19.4 °F 93% 30.27 in 10.0 mi WNW 4.6 mph - N/A   Clear
5:55 AM 21.2 °F 13.6 °F 19.4 °F 93% 30.28 in 10.0 mi West 5.8 mph - N/A   Clear
6:15 AM 21.2 °F 13.6 °F 19.4 °F 93% 30.27 in 10.0 mi West 5.8 mph - N/A   Clear
6:35 AM 21.2 °F 16.4 °F 19.4 °F 93% 30.29 in 10.0 mi West 3.5 mph - N/A   Clear
6:55 AM 21.2 °F 16.4 °F 19.4 °F 93% 30.28 in 10.0 mi WNW 3.5 mph - N/A   Clear
7:15 AM 21.2 °F 16.4 °F 19.4 °F 93% 30.29 in 10.0 mi WNW 3.5 mph - N/A   Clear
7:35 AM 21.2 °F - 19.4 °F 93% 30.30 in 10.0 mi Calm Calm - N/A   Clear
7:55 AM 23.0 °F - 21.2 °F 93% 30.30 in 10.0 mi Calm Calm - N/A   Mostly Cloudy
8:15 AM 23.0 °F - 21.2 °F 93% 30.31 in 10.0 mi Calm Calm - N/A   Overcast
8:35 AM 24.8 °F - 21.2 °F 86% 30.32 in 10.0 mi Calm Calm - N/A   Overcast
8:55 AM 26.6 °F - 23.0 °F 86% 30.32 in 10.0 mi Calm Calm - N/A   Overcast
9:15 AM 26.6 °F - 23.0 °F 86% 30.32 in 10.0 mi Calm Calm - N/A   Overcast
9:35 AM 28.4 °F - 24.8 °F 86% 30.33 in 10.0 mi Calm Calm - N/A   Overcast
9:55 AM 30.2 °F 26.7 °F 26.6 °F 86% 30.33 in 10.0 mi West 3.5 mph - N/A   Overcast
10:15 AM 30.2 °F 26.7 °F 26.6 °F 86% 30.34 in 10.0 mi West 3.5 mph - N/A   Overcast
10:35 AM 32.0 °F 28.7 °F 26.6 °F 80% 30.34 in 10.0 mi West 3.5 mph - N/A   Mostly Cloudy
10:55 AM 32.0 °F - 26.6 °F 80% 30.34 in 10.0 mi Calm Calm - N/A   Clear
11:15 AM 33.8 °F - 28.4 °F 81% 30.34 in 10.0 mi Calm Calm - N/A   Clear
11:35 AM 35.6 °F - 28.4 °F 75% 30.33 in 10.0 mi Calm Calm - N/A   Clear
11:55 AM 35.6 °F 32.8 °F 28.4 °F 75% 30.33 in 10.0 mi WSW 3.5 mph - N/A   Clear
12:35 PM 37.4 °F - 28.4 °F 70% 30.33 in 10.0 mi Calm Calm - N/A   Clear
12:55 PM 37.4 °F - 28.4 °F 70% 30.33 in 10.0 mi Calm Calm - N/A   Clear
1:15 PM 37.4 °F - 30.2 °F 75% 30.33 in 10.0 mi Calm Calm - N/A   Clear
1:35 PM 37.4 °F 34.9 °F 30.2 °F 75% 30.33 in 10.0 mi West 3.5 mph - N/A   Clear
1:55 PM 37.4 °F 34.9 °F 30.2 °F 75% 30.33 in 10.0 mi NW 3.5 mph - N/A   Clear
2:15 PM 39.2 °F - 30.2 °F 70% 30.33 in 10.0 mi Calm Calm - N/A   Clear
2:35 PM 39.2 °F - 30.2 °F 70% 30.33 in 10.0 mi Calm Calm - N/A   Clear
2:55 PM 39.2 °F 37.0 °F 30.2 °F 70% 30.33 in 10.0 mi NNW 3.5 mph - N/A   Clear
3:15 PM 39.2 °F - 30.2 °F 70% 30.34 in 10.0 mi Calm Calm - N/A   Clear
3:35 PM 37.4 °F - 30.2 °F 75% 30.34 in 10.0 mi Calm Calm - N/A   Clear
3:55 PM 37.4 °F - 30.2 °F 75% 30.35 in 10.0 mi Calm Calm - N/A   Clear
4:15 PM 37.4 °F - 30.2 °F 75% 30.34 in 10.0 mi Calm Calm - N/A   Clear
4:35 PM 37.4 °F - 30.2 °F 75% 30.34 in 10.0 mi Calm Calm - N/A   Clear
4:55 PM 35.6 °F 32.8 °F 30.2 °F 81% 30.34 in 10.0 mi East 3.5 mph - N/A   Clear
5:15 PM 35.6 °F 32.8 °F 30.2 °F 81% 30.34 in 10.0 mi East 3.5 mph - N/A   Clear
5:35 PM 35.6 °F 32.8 °F 28.4 °F 75% 30.34 in 10.0 mi East 3.5 mph - N/A   Clear
5:55 PM 35.6 °F 32.8 °F 28.4 °F 75% 30.34 in 10.0 mi East 3.5 mph - N/A   Clear
6:15 PM 33.8 °F 30.8 °F 28.4 °F 81% 30.34 in 10.0 mi East 3.5 mph - N/A   Clear
6:35 PM 33.8 °F - 28.4 °F 81% 30.35 in 10.0 mi Calm Calm - N/A   Clear
6:55 PM 33.8 °F - 28.4 °F 81% 30.36 in 10.0 mi Calm Calm - N/A   Clear
7:15 PM 33.8 °F - 28.4 °F 81% 30.36 in 10.0 mi Calm Calm - N/A   Clear
7:35 PM 33.8 °F 30.8 °F 28.4 °F 81% 30.36 in 10.0 mi East 3.5 mph - N/A   Clear
7:55 PM 32.0 °F - 28.4 °F 87% 30.36 in 10.0 mi Calm Calm - N/A   Clear
8:15 PM 32.0 °F - 28.4 °F 87% 30.37 in 10.0 mi Calm Calm - N/A   Clear
8:35 PM 32.0 °F 28.7 °F 28.4 °F 87% 30.36 in 10.0 mi ESE 3.5 mph - N/A   Clear
8:55 PM 32.0 °F 26.4 °F 28.4 °F 87% 30.36 in 10.0 mi SE 5.8 mph - N/A   Clear
9:15 PM 32.0 °F 27.5 °F 28.4 °F 87% 30.37 in 10.0 mi ESE 4.6 mph - N/A   Clear
9:35 PM 32.0 °F 27.5 °F 28.4 °F 87% 30.38 in 10.0 mi SE 4.6 mph - N/A   Clear
9:55 PM 32.0 °F 26.4 °F 28.4 °F 87% 30.38 in 10.0 mi ESE 5.8 mph - N/A   Clear
10:15 PM 32.0 °F 26.4 °F 28.4 °F 87% 30.37 in 10.0 mi SE 5.8 mph - N/A   Clear
10:35 PM 32.0 °F 26.4 °F 28.4 °F 87% 30.37 in 10.0 mi ESE 5.8 mph - N/A   Clear
10:55 PM 32.0 °F 27.5 °F 28.4 °F 87% 30.37 in 10.0 mi ESE 4.6 mph - N/A   Clear
11:15 PM 32.0 °F 26.4 °F 28.4 °F 87% 30.37 in 10.0 mi SE 5.8 mph - N/A   Clear
11:35 PM 32.0 °F 26.4 °F 28.4 °F 87% 30.38 in 10.0 mi SE 5.8 mph - N/A   Clear
11:55 PM 32.0 °F 26.4 °F 28.4 °F 87% 30.38 in 10.0 mi SE 5.8 mph - N/A   Clear